Regional Weather Roundup
Issued by NWS

Home | Current Version | Previous Version | Text Only | Print | Product List | Glossary On
Versions: 1 2 3 4 5 6 7 8 9 10 11 12 13 14 15 16 17 18 19 20 21 22 23 24 25 26 27 28 29 30 31 32 33 34 35 36 37 38 39 40 41 42 43 44 45 46 47 48 49 50
000
ASUS46 KSTO 171715
RWRCA

NORTHERN AND CENTRAL CA REGIONAL WEATHER ROUNDUP
NATIONAL WEATHER SERVICE SACRAMENTO CA
900 AM PST SUN DEC 17 2017

NOTE: FAIR INDICATES FEW OR NO CLOUDS BELOW 12,000 FEET WITH NO
SIGNIFICANT WEATHER AND/OR OBSTRUCTIONS TO VISIBILITY.

CAZ001-003-171800-
NORTHWEST AREA

CITY           SKY/WX    TMP DP  RH WIND       PRES   REMARKS
CRESCENT CITY  SUNNY     51  36  56 E5        30.19S
UKIAH          SUNNY     38  32  79 CALM      30.09R
$$

CAZ006-505>513-171800-
BAY AREA

CITY           SKY/WX    TMP DP  RH WIND       PRES   REMARKS
SANTA ROSA     SUNNY     49  34  56 W6        30.03R
SAN RAFAEL     N/A       47  MM  MM MISG
NAPA           SUNNY     58  20  22 N3        30.04R
CONCORD        SUNNY     54  22  28 E5        30.05S
OAKLAND CITY   N/A      MM  MM  MM MISG
OAKLAND        SUNNY     54  21  27 NE6       30.05S
SAN FRAN CITY  N/A       53  MM  31 MISG
SAN FRAN ARPT  MOSUNNY   55  29  36 NE10      30.04S
LIVERMORE      SUNNY     51  21  30 E12       30.04S
HAYWARD        SUNNY     53  18  25 SW5       30.04R
REDWOOD CITY   N/A       54  MM  36 MISG
MOFFETT ARPT   SUNNY     54  21  27 VRB6      30.06S
SAN JOSE ARPT  MOSUNNY   56  18  22 N14       30.04R
$$
CAZ034-037-514>518-171800-
CENTRAL COAST

CITY           SKY/WX    TMP DP  RH WIND       PRES   REMARKS
WATSONVILLE      N/A    N/A N/A N/A MISG      30.04R
SALINAS        SUNNY     49  23  36 N5        30.03R
MONTEREY       SUNNY     53  22  29 CALM      30.03R
SAN LUIS OBISP SUNNY     54  23  30 CALM      29.95R
SANTA MARIA    MOSUNNY   50  26  39 CALM      29.96R
$$
CAZ015-016-171800-
NORTHERN SACRAMENTO VALLEY

CITY           SKY/WX    TMP DP  RH WIND       PRES   REMARKS
REDDING        SUNNY     54  18  24 N14       30.12S
RED BLUFF      SUNNY     54  21  27 N12       30.13S
OROVILLE       SUNNY     47  26  44 NW9       30.07S
$$
CAZ016>018-171800-
SOUTHERN SACRAMENTO VALLEY

CITY           SKY/WX    TMP DP  RH WIND       PRES   REMARKS
AUBURN         SUNNY     46  28  49 SE5       30.03R
BEALE AFB      SUNNY     47  26  43 NE3       30.05R
LINCOLN        FAIR      41  28  60 CALM      30.05R
MARYSVILLE     SUNNY     51  23  33 N14       30.06R
SAC INTL ARPT  SUNNY     47  29  49 CALM      30.06R
MATHER AIRPORT SUNNY     43  28  56 CALM      30.05R
DOWNTOWN SAC   N/A       48  MM  MM MISG
SAC EXEC ARPT  SUNNY     49  27  42 N8        30.06R
VACAVILLE      SUNNY     55  20  25 N14G21    30.06R
TRAVIS AFB     SUNNY     54  20  26 NE16      30.03R
$$
CAZ019>021-171800-
SAN JOAQUIN VALLEY

CITY           SKY/WX    TMP DP  RH WIND       PRES   REMARKS
STOCKTON       SUNNY     47  27  45 NW3       30.05R
MODESTO        SUNNY     45  26  47 CALM      30.05R
MERCED         SUNNY     41  34  76 CALM      30.05R HAZE
LEMOORE        MOSUNNY   40  27  59 N8        30.07R WCI  34
FRESNO         MOSUNNY   42  37  82 CALM      30.07R HAZE
HANFORD        SUNNY     41  34  76 VRB3      30.06R
PORTERVILLE    MOSUNNY   39  30  70 SW3       30.06R
BAKERSFIELD    SUNNY     45  26  47 CALM      30.04R
$$
CAZ011-012-071-171800-
NORTHERN MOUNTAINS

CITY           SKY/WX    TMP DP  RH WIND       PRES   REMARKS
YREKA          SUNNY     27  23  85 SW5       30.26F WCI  22
MOUNT SHASTA   SUNNY     33  19  56 W3        30.20F
ALTURAS        PTSUNNY   24  20  84 CALM      30.25F
$$
CAZ011-012-071-171800-
SIERRA NEVADA MTNS

CITY           SKY/WX    TMP DP  RH WIND       PRES   REMARKS
BLUE CANYON    SUNNY     45  13  27 CALM      30.05R
TRUCKEE        SUNNY     21  14  73 CALM      30.19F
TAHOE VLY ARPT SUNNY     25  14  63 SE3       30.15F
MAMMOTH LAKES  FAIR      27  -1  30 W10       30.17S WCI  17
$$



USA.gov is the U.S. government's official web portal to all federal, state and local government web resources and services.